Wind_Speed
10 11 12 13 12 12 12 14 14 13 12 11 11 10 10 10 10 10 11 11 11 10 10 10 10 9 9 10 10 10 10 9 9 8 8 8 8 8 7 7 7 6 6 6 6 7 7 7 8 8 9 9 9 9 9 10 10 10 11 11 11 12 12 12 12 11 11 11 12 12 13 14 15 16 17 17 17 17 17 17 17 18 18 19 18 18
9 10 11 12 12 11 11 12 12 11 10 9 9 9 9 8 8 8 9 9 9 9 9 9 9 9 8 8 9 9 9 10 10 10 10 9 9 9 8 8 7 6 6 5 5 5 6 6 7 7 7 8 7 7 7 8 8 8 9 10 11 11 12 12 12 12 13 13 13 13 13 14 14 15 15 15 15 15 15 15 16 16 16 17 17 16
9 10 11 12 12 10 9 9 10 10 8 8 8 8 8 8 7 7 8 8 8 8 8 9 9 9 8 8 8 8 8 9 9 10 10 10 10 9 9 9 8 8 7 7 6 6 7 7 7 8 7 7 7 6 6 6 6 6 7 7 8 8 9 10 11 12 12 13 13 13 14 14 14 14 14 14 15 15 15 15 15 15 15 15 15 15
10 10 11 12 11 10 9 9 9 9 8 7 7 7 8 8 8 8 8 8 8 8 8 8 8 8 8 8 8 8 7 8 8 8 8 8 8 8 8 7 7 7 7 6 6 7 7 7 7 7 7 6 6 6 5 5 5 5 6 6 6 7 8 8 9 10 10 11 12 12 12 13 13 13 13 13 14 14 14 14 14 14 14 14 14 15
10 10 11 12 11 10 10 10 9 8 8 7 7 7 8 8 8 8 8 8 7 7 6 6 6 6 6 6 6 6 6 6 6 6 6 6 6 5 5 5 5 5 5 5 5 5 6 6 6 6 5 5 4 4 4 5 5 6 6 6 7 7 8 8 8 9 9 10 10 11 11 11 12 12 12 13 13 13 13 13 13 14 14 14 15 15
10 11 12 12 11 10 10 10 9 8 8 8 8 8 8 7 7 6 6 5 5 4 4 4 4 4 4 4 4 4 4 4 4 4 5 4 4 4 4 3 3 3 3 3 4 4 4 4 4 4 5 5 5 5 6 7 7 7 8 8 9 9 9 9 10 10 10 11 11 11 12 12 12 12 13 13 13 13 13 13 13 14 14 14 15 15
10 11 11 11 11 11 10 9 9 9 8 7 7 7 7 6 6 5 4 3 3 3 3 3 3 2 2 2 2 2 2 3 3 3 4 4 4 4 4 4 4 4 4 4 4 4 5 5 5 6 6 7 7 8 8 9 9 10 10 10 10 11 11 11 12 12 12 13 13 13 14 14 14 14 14 14 15 14 14 14 14 14 14 14 15 15
10 10 11 10 11 11 11 10 9 9 8 7 6 5 5 4 4 3 3 3 2 2 2 2 2 2 2 1 2 2 2 3 3 4 4 5 5 5 6 6 6 6 6 7 7 7 8 8 8 9 9 9 10 10 11 11 12 12 12 12 13 13 13 14 14 14 14 14 15 15 15 15 15 15 15 15 15 15 14 14 14 14 14 15 15 15
11 11 11 11 10 10 9 9 9 8 7 6 5 4 3 3 3 3 3 3 2 2 2 1 2 2 3 3 3 3 4 5 5 6 6 7 7 7 7 8 8 8 9 9 9 10 10 10 11 11 11 12 12 12 13 13 14 14 14 15 15 15 16 16 16 16 16 16 15 15 15 15 14 14 14 14 14 14 14 14 14 14 14 14 15 15
13 11 10 10 11 10 8 7 7 7 7 6 5 5 4 3 3 3 3 3 3 3 2 3 3 3 4 5 5 5 6 7 8 8 8 8 8 8 8 8 9 9 9 10 10 11 11 12 12 13 13 14 14 14 15 15 16 16 16 17 17 17 17 17 16 16 15 15 14 14 13 13 13 13 13 13 13 13 13 13 13 14 14 14 15 15
11 11 10 9 10 10 9 7 6 6 6 5 6 6 6 5 4 3 2 2 2 2 3 4 5 6 7 7 7 7 7 7 8 8 8 8 8 8 8 8 8 9 9 10 11 11 12 13 13 14 15 15 16 16 16 17 17 17 17 17 17 17 16 16 15 14 13 13 12 12 11 11 12 12 12 12 12 12 13 13 13 14 14 14 15 15
8 9 9 8 8 8 8 8 8 7 6 6 5 5 4 4 3 3 3 3 3 3 4 6 7 8 9 9 9 8 8 7 7 7 6 6 7 7 8 8 9 9 10 11 12 12 13 14 14 15 15 16 16 16 17 17 17 17 16 16 15 14 14 13 12 12 11 11 11 11 11 11 12 12 12 12 12 13 13 13 14 14 14 15 15 15
9 9 8 8 8 7 7 8 7 7 7 6 5 4 3 3 3 3 3 3 4 5 6 8 9 10 10 9 9 8 8 7 7 6 6 6 7 9 9 10 11 11 12 12 12 13 13 13 14 14 14 15 15 15 15 15 15 15 14 13 13 12 12 11 11 11 11 11 12 12 12 12 12 12 13 13 13 13 14 14 14 15 15 15 16 16
9 9 8 7 7 8 8 8 7 7 7 6 6 5 4 3 3 3 3 4 5 6 7 9 9 9 9 8 7 7 7 7 8 7 7 8 10 11 12 12 12 12 12 12 11 11 12 12 12 12 13 13 13 13 13 13 13 12 12 11 11 11 11 11 11 11 12 12 12 12 13 13 13 13 13 13 14 14 14 14 15 15 15 15 16 16
8 7 6 6 5 6 7 8 8 8 7 6 5 5 5 4 3 3 3 4 5 7 8 9 8 8 6 5 5 6 7 8 10 11 11 11 12 12 13 12 12 11 11 10 10 10 10 10 11 11 11 11 12 12 12 12 12 12 12 11 11 11 11 12 12 12 12 12 13 13 13 13 14 14 14 14 14 14 14 15 15 15 15 16 16 16
7 7 6 6 6 6 7 8 8 8 7 6 5 5 5 4 3 3 3 4 6 7 7 7 6 5 4 3 4 5 8 10 13 15 16 15 14 12 12 11 10 9 9 9 9 9 9 10 10 11 11 12 12 12 12 13 13 13 12 12 12 12 12 12 12 13 13 13 13 14 14 14 14 15 15 15 15 15 15 15 15 16 16 16 16 16
8 7 7 7 7 7 7 7 7 7 6 6 6 5 5 4 3 3 3 4 5 5 5 4 3 2 2 2 4 7 10 12 15 16 16 16 14 11 10 9 8 8 9 9 9 10 10 11 11 12 12 13 13 14 14 14 14 14 13 13 13 12 12 12 13 13 13 14 14 14 14 14 15 15 15 15 15 15 16 16 16 16 16 17 17 17
8 8 8 8 7 7 6 6 6 7 6 6 6 6 5 4 4 3 3 4 4 3 3 3 2 1 3 3 5 8 12 13 14 16 16 15 12 10 8 8 8 8 9 9 10 11 12 12 13 14 14 15 15 15 15 14 14 13 13 12 12 12 12 12 12 13 13 13 13 13 13 14 14 14 14 14 15 15 15 16 16 16 16 16 17 17
9 9 9 8 7 6 7 7 7 6 6 6 6 5 5 4 4 3 3 3 3 3 3 3 3 3 3 4 7 10 12 12 13 15 15 14 10 7 7 7 7 8 10 11 12 12 13 14 14 15 15 15 15 14 13 12 12 11 11 10 10 11 11 11 11 11 11 11 11 12 12 12 13 13 13 13 14 14 15 15 15 15 16 16 16 17
10 10 10 9 7 7 7 7 6 6 5 5 5 5 4 4 3 3 3 3 3 4 4 3 3 3 4 6 8 9 10 11 12 13 12 10 7 5 6 7 8 10 12 13 13 14 15 16 16 16 15 14 13 12 10 9 9 9 9 9 9 9 9 9 9 9 9 10 10 11 11 12 12 12 13 13 14 14 14 15 15 15 16 16 17 17
8 8 8 8 7 6 5 5 4 4 4 4 4 4 4 3 3 3 3 3 3 4 4 4 4 4 5 7 7 8 9 10 11 11 9 6 4 4 5 8 11 14 16 16 16 16 17 18 17 16 13 11 10 8 7 7 7 7 7 7 7 7 7 8 8 9 9 10 11 11 12 13 13 14 14 15 15 15 16 16 16 16 17 17 18 18
7 6 6 7 6 6 5 4 4 4 4 4 4 4 3 3 2 2 3 3 4 4 4 4 5 5 6 6 6 7 8 9 10 10 7 4 3 4 7 10 14 16 18 19 19 19 19 19 17 13 10 8 6 5 5 5 5 5 6 6 6 7 7 8 9 10 11 12 13 14 14 15 15 15 16 16 16 16 16 17 17 17 17 18 18 18
7 6 6 6 5 5 4 4 4 4 4 4 4 3 3 2 2 2 3 3 4 4 4 5 6 6 6 5 5 6 7 8 10 10 6 4 4 5 9 13 16 18 19 20 21 21 21 19 15 11 7 5 4 3 3 3 4 4 5 6 7 8 9 10 12 13 14 14 15 16 16 16 16 16 16 16 16 16 16 17 17 17 17 18 18 18
6 5 5 5 4 4 4 3 4 4 4 3 3 3 3 2 2 3 3 3 4 4 5 6 6 6 5 4 4 5 7 8 9 9 6 4 5 7 10 14 17 19 19 20 21 22 21 18 13 8 4 3 2 2 3 3 4 5 6 8 10 11 13 14 15 15 16 16 16 16 16 16 15 15 15 15 16 16 16 16 16 17 17 17 18 18
4 4 4 4 4 3 3 3 4 4 3 3 2 2 2 2 2 3 3 3 4 5 6 6 6 5 5 5 4 5 7 8 9 8 6 4 5 8 11 14 16 18 19 21 22 21 20 16 12 7 3 1 1 2 2 4 6 8 11 13 15 16 16 16 16 16 16 16 15 15 15 15 15 15 15 15 16 16 16 16 17 17 17 18 18 19
3 3 3 3 3 3 3 4 4 3 3 2 2 1 2 2 2 3 3 3 4 5 6 6 5 5 5 5 5 6 8 9 8 7 6 4 5 8 11 13 15 17 19 21 21 20 18 15 10 6 3 1 1 2 3 6 9 13 16 18 18 18 17 16 15 15 14 14 14 14 15 15 15 16 16 16 16 16 17 17 17 17 18 18 19 19
3 3 3 3 3 3 3 3 3 2 2 2 2 2 3 3 3 3 4 4 5 5 5 5 4 4 5 5 6 8 9 9 7 6 6 6 6 8 10 13 15 17 19 20 20 18 15 12 8 5 2 1 2 3 6 10 14 17 19 19 18 17 16 15 14 14 14 14 15 15 15 16 16 16 17 17 17 17 17 17 17 18 18 18 19 19
4 3 3 3 3 3 3 2 2 2 2 3 3 4 4 4 4 4 5 4 5 5 4 4 3 3 4 6 8 9 10 8 6 5 6 8 7 7 10 13 15 16 18 19 19 17 12 8 5 3 2 2 3 6 9 14 18 20 20 18 17 16 15 15 15 15 16 16 16 16 16 17 17 17 17 17 17 17 17 17 17 18 18 18 17 18
5 5 4 4 4 4 4 4 4 4 4 4 5 5 5 5 5 5 5 5 4 4 4 5 4 4 5 8 10 10 9 6 4 4 7 8 8 8 11 12 13 15 17 17 17 14 9 6 4 2 3 4 6 10 15 18 21 21 19 18 16 16 16 16 17 17 17 17 17 17 17 17 17 17 17 17 17 17 17 17 17 18 17 17 17 17
7 6 5 4 4 4 4 5 6 6 5 5 5 5 5 5 5 5 5 5 5 5 5 6 6 6 7 8 8 6 4 3 2 4 9 8 7 8 10 11 12 13 14 14 11 8 7 6 4 3 4 7 12 16 19 21 21 20 19 17 17 17 17 18 19 19 19 18 18 18 18 17 17 17 17 17 17 17 17 17 17 17 17 16 17 17
8 6 5 4 4 4 5 6 7 7 7 6 6 6 6 6 5 6 6 6 6 6 6 6 7 7 6 5 3 1 2 2 4 7 10 7 7 8 10 11 11 12 12 10 5 3 5 6 5 4 8 12 16 19 20 21 20 19 18 18 18 18 19 19 20 20 20 19 19 19 18 17 17 17 17 17 17 17 17 17 17 17 16 17 18 18
9 7 6 5 5 4 5 5 5 6 6 6 6 7 7 7 7 7 7 8 8 8 8 8 7 7 7 6 4 3 5 6 7 9 10 7 8 10 10 10 11 12 11 9 6 4 4 4 7 12 15 17 18 19 19 19 18 17 17 17 18 19 20 21 21 21 21 21 20 19 18 18 18 17 17 17 17 17 17 16 16 16 16 17 18 19
9 8 6 5 4 4 4 4 4 4 4 5 6 6 7 8 8 8 9 9 9 9 8 8 8 8 8 9 8 8 9 9 9 9 9 9 9 10 11 11 11 12 12 10 9 8 8 9 13 18 20 19 18 18 18 18 17 16 16 17 19 21 22 22 22 22 22 21 21 20 19 19 19 19 19 19 18 17 16 16 15 15 15 17 18 18
10 9 7 5 5 4 4 4 4 4 4 5 5 6 7 7 8 8 9 9 9 8 8 8 8 9 9 9 10 10 10 10 8 7 8 9 10 11 12 12 12 12 12 11 11 11 12 13 15 17 19 20 19 17 17 16 15 15 16 17 19 22 23 23 23 23 22 21 21 21 21 21 21 21 20 20 19 18 17 16 16 16 16 17 18 19
11 9 8 7 6 6 6 6 5 5 5 5 5 6 6 7 7 8 8 8 8 8 8 8 8 9 10 10 10 10 11 10 9 8 9 10 11 12 13 12 12 12 12 12 11 11 11 14 15 16 17 19 19 18 16 14 14 15 17 18 20 22 23 23 22 22 22 21 21 21 22 22 22 22 21 20 19 18 17 17 17 17 18 18 18 19
11 10 9 8 8 8 8 8 7 6 5 5 5 6 6 7 7 7 7 7 7 7 8 9 9 9 10 11 12 12 13 12 11 11 11 12 13 13 13 12 12 12 12 12 12 12 12 14 16 17 16 16 16 16 16 15 16 17 18 19 20 21 22 22 21 21 21 21 21 22 22 22 22 21 21 20 19 18 18 19 19 20 20 20 19 19
11 10 10 10 10 10 11 10 9 8 7 7 6 6 6 6 7 7 7 7 7 8 8 9 9 9 9 10 11 12 13 13 12 12 12 12 13 14 14 14 13 13 12 12 12 13 13 14 15 16 15 14 13 14 17 18 19 19 19 20 20 21 21 20 19 19 19 20 22 22 22 22 21 21 21 21 21 21 22 22 22 22 21 21 20 20
11 12 12 11 12 12 12 12 10 8 8 8 7 7 6 6 6 7 7 7 8 8 8 8 8 9 9 10 11 12 12 13 13 12 12 13 14 14 15 15 15 14 13 13 13 14 14 13 11 10 12 14 15 17 18 20 20 21 21 21 21 20 19 18 18 19 20 21 22 22 22 21 21 21 22 23 24 24 24 24 24 23 22 21 22 22
14 14 13 13 13 12 12 11 9 9 9 9 8 7 6 6 7 7 7 8 8 9 9 9 9 10 10 10 11 12 12 13 13 13 13 13 14 15 15 16 16 15 15 15 15 15 14 13 11 10 11 14 17 19 20 20 20 21 22 23 21 19 18 17 18 20 21 21 22 21 21 21 22 23 24 24 24 24 24 24 24 23 23 23 24 24
14 15 15 14 12 10 9 9 9 9 9 8 7 7 6 7 7 7 7 7 8 8 8 9 9 10 10 10 11 12 12 13 13 13 13 13 14 14 15 16 16 16 16 16 15 15 15 15 15 16 16 16 17 19 20 20 20 20 21 21 20 19 19 20 20 21 21 20 20 20 21 22 23 24 24 24 23 23 24 24 24 24 24 24 24 25
14 14 13 12 9 8 8 8 8 8 8 7 7 7 7 7 7 8 8 8 8 8 8 9 10 10 11 11 12 12 12 13 13 13 13 13 13 14 14 15 16 16 16 16 16 16 16 16 16 17 17 18 19 20 21 21 20 19 19 19 20 22 23 22 21 19 19 18 19 20 22 23 24 24 23 23 23 24 24 24 25 26 25 24 23 23
11 10 10 8 7 7 8 8 8 7 7 7 7 7 7 7 8 8 8 8 9 9 9 9 10 11 12 13 13 12 12 12 12 12 12 12 12 13 14 14 15 15 16 16 17 17 16 16 17 17 17 18 18 19 20 21 21 19 19 19 21 23 24 21 18 17 17 19 21 22 23 24 24 25 25 24 25 25 25 25 25 25 24 23 23 23
8 9 9 9 9 10 10 9 9 9 8 8 8 8 8 8 8 8 9 9 9 10 10 10 11 12 13 13 13 13 11 11 10 10 11 11 12 12 13 14 14 15 15 16 17 17 17 16 16 17 17 18 18 19 20 22 22 21 20 20 20 20 19 19 19 19 20 21 23 23 24 24 25 25 26 25 26 25 25 25 24 24 23 23 24 24
11 12 11 11 11 11 11 11 11 10 9 9 9 9 9 9 9 9 9 10 10 10 10 11 12 12 13 13 13 12 11 10 10 10 10 11 12 13 13 14 14 14 15 16 17 17 17 17 17 17 18 18 18 19 20 21 22 22 21 20 19 18 18 20 22 23 23 23 23 23 24 24 25 26 27 26 26 25 25 25 24 24 24 24 24 24
13 13 12 13 13 13 13 12 10 9 9 8 8 9 9 9 9 9 10 10 10 10 11 11 11 11 11 10 10 10 11 11 11 11 11 11 11 12 13 14 14 15 15 16 17 18 17 17 18 18 18 18 18 20 20 21 22 22 22 21 20 20 21 22 23 23 23 23 24 24 24 25 25 26 27 27 26 25 25 24 25 25 25 24 24 24
13 12 12 11 11 11 10 9 8 7 8 8 9 9 9 9 9 9 9 10 10 11 11 11 11 10 9 9 9 10 11 12 12 12 12 11 11 11 12 13 14 15 15 16 17 17 18 18 18 19 19 19 19 20 21 21 21 21 22 22 21 21 22 22 22 22 22 23 24 25 25 25 25 25 26 26 26 26 25 25 24 24 24 24 24 24
11 10 9 9 8 8 7 7 7 8 9 9 10 9 9 9 9 9 9 9 10 11 11 11 11 10 9 8 9 10 11 12 13 13 13 12 12 12 12 12 13 13 14 15 16 17 18 19 20 20 19 19 20 20 21 20 20 21 22 22 21 21 21 22 22 22 22 23 24 25 25 25 25 25 25 26 27 26 26 24 24 23 23 23 23 24
10 10 9 9 9 9 9 9 9 10 11 11 11 10 10 9 9 9 9 9 9 10 10 9 8 7 7 8 10 11 12 13 13 13 13 13 12 12 12 12 13 14 15 16 17 18 19 19 20 20 20 19 19 20 22 22 21 21 21 22 21 21 21 22 23 22 22 23 23 24 24 24 24 24 26 26 26 26 25 25 24 23 22 22 23 23
11 11 11 11 11 10 11 11 12 12 13 13 12 11 10 9 8 8 8 8 8 8 8 7 6 7 8 10 11 12 12 13 13 13 13 13 12 12 13 13 14 15 16 16 16 17 17 18 18 18 19 19 21 22 23 23 22 22 22 22 21 21 22 23 23 23 22 23 23 24 24 23 23 24 24 24 24 25 26 26 25 24 23 22 22 23
13 13 12 12 12 12 12 13 13 13 13 12 12 11 9 8 7 7 7 7 7 7 7 7 7 8 9 10 11 12 12 12 12 12 12 12 12 12 13 14 14 15 15 15 15 15 15 15 15 15 15 16 18 21 22 23 22 22 22 21 21 21 21 22 23 23 22 23 24 24 24 24 23 22 21 21 23 25 27 27 26 25 23 22 22 22
14 14 14 14 14 13 13 13 12 12 11 10 9 9 8 7 7 6 6 6 6 6 6 6 7 8 9 10 11 11 11 11 11 12 12 12 12 13 13 14 14 14 14 13 13 13 12 12 12 13 13 12 12 14 17 19 20 20 20 20 20 19 20 21 22 23 23 24 24 24 23 23 22 20 19 20 21 22 24 26 26 26 24 23 22 23
Wind_Direction
260 266 274 278 281 283 284 287 288 288 288 287 286 286 287 287 288 288 288 288 288 288 288 287 286 285 285 285 284 282 277 274 273 274 275 276 278 280 283 287 292 298 304 307 307 303 297 290 284 279 276 273 271 268 265 262 258 255 253 250 249 247 245 243 242 241 241 241 240 239 238 236 235 234 233 234 234 235 236 236 237 238 240 241 242 244
265 269 274 279 281 281 280 282 283 283 282 281 280 279 281 283 285 287 289 289 289 288 288 286 285 283 281 280 280 280 279 277 276 275 276 277 278 278 280 281 283 285 288 289 289 289 289 289 290 290 290 289 288 286 284 280 276 272 267 262 259 256 254 252 251 249 247 246 246 245 246 246 245 244 242 242 242 242 243 243 244 245 247 249 252 255
273 275 276 281 283 283 280 282 283 281 280 276 275 275 278 279 279 281 283 286 286 286 285 283 282 281 280 278 276 275 274 274 275 276 279 281 283 285 287 289 290 289 288 285 283 285 290 296 303 309 314 317 318 319 319 317 313 306 298 289 281 275 271 268 266 264 262 261 260 260 261 262 262 261 260 259 259 258 258 258 258 259 261 261 264 265
275 277 278 282 284 284 281 279 279 278 276 273 273 275 277 278 277 278 280 282 283 283 281 279 278 278 277 276 274 272 270 271 273 278 282 286 291 295 299 302 304 304 303 301 301 303 308 315 322 328 333 336 337 336 332 327 322 315 307 301 295 288 283 279 276 274 273 271 270 270 270 270 270 269 268 267 266 265 265 266 266 266 267 267 267 268
273 275 277 279 279 278 277 274 272 270 270 269 268 270 272 274 276 278 281 282 283 283 281 279 276 275 276 276 276 275 274 274 277 282 288 294 300 306 312 318 323 326 327 328 330 332 333 335 338 338 337 333 328 320 311 302 296 291 286 283 280 278 276 274 273 272 271 270 270 270 270 269 269 268 267 265 265 266 265 266 267 266 267 267 268 268
271 270 273 272 270 267 267 265 262 261 262 262 262 262 264 269 274 279 283 286 287 287 286 283 280 278 279 281 283 286 288 289 292 296 301 308 313 317 319 323 326 329 332 335 338 338 333 330 326 321 316 312 307 303 296 291 287 284 281 279 278 276 276 275 275 274 274 273 272 272 271 271 271 271 270 268 267 267 268 269 268 268 268 268 269 270
265 266 269 267 264 261 258 256 255 254 255 257 259 261 262 267 273 278 282 288 291 292 291 288 287 288 291 295 301 307 311 311 313 315 316 318 318 317 313 310 306 303 302 303 304 303 301 300 300 300 300 299 299 298 294 291 288 286 285 284 284 284 284 284 284 284 283 282 281 280 278 278 277 277 276 274 273 272 272 272 273 272 270 270 270 271
260 262 264 261 259 257 255 253 253 254 255 257 261 265 265 267 270 274 280 284 283 281 283 290 295 298 303 312 316 316 313 312 311 312 311 309 307 305 303 301 298 296 293 292 291 291 291 292 293 295 295 295 295 295 293 291 290 289 290 290 290 291 292 292 292 291 291 289 288 286 285 284 282 281 280 279 277 276 275 275 275 274 272 272 272 272
257 259 259 257 254 250 249 251 254 256 258 262 267 271 272 270 270 273 278 275 271 267 263 272 285 295 300 302 305 306 304 303 303 302 302 300 299 297 297 296 295 294 293 293 293 293 294 294 295 295 295 295 294 294 293 293 293 293 293 294 295 295 295 295 295 295 294 293 291 290 289 288 287 286 284 282 281 279 278 277 276 275 274 273 273 273
256 257 256 255 252 248 243 248 254 258 259 263 268 273 277 279 278 273 265 261 268 274 273 277 285 293 297 296 296 298 300 300 300 300 300 300 299 298 297 297 297 297 297 298 298 298 298 298 297 296 296 295 295 295 295 295 295 296 296 296 297 297 297 297 297 297 296 296 296 296 296 295 294 292 290 288 286 284 282 280 278 277 275 275 274 274
259 257 256 254 252 250 245 246 250 256 259 263 270 277 279 279 277 272 262 258 273 294 305 303 303 304 306 303 301 300 300 299 298 297 297 298 299 299 299 300 302 302 302 302 302 301 300 298 297 297 296 296 296 295 295 296 296 297 297 298 298 299 299 300 300 301 301 302 302 303 302 300 298 296 294 291 289 287 285 283 281 279 278 277 276 276
258 257 254 251 250 249 248 248 250 252 256 261 264 267 270 272 273 273 272 282 299 318 327 323 316 311 310 310 310 308 305 302 299 296 295 296 296 297 299 301 302 302 302 301 300 299 297 296 295 295 295 295 295 295 296 296 296 297 298 299 299 301 302 303 304 305 306 306 305 303 301 298 297 295 293 291 290 288 286 284 283 282 281 280 279 278
253 251 248 246 245 244 243 244 247 251 254 255 254 249 247 256 269 279 282 297 311 322 329 327 321 315 311 311 312 312 311 308 304 299 297 302 305 306 305 306 306 305 303 301 299 297 295 294 294 294 295 295 295 295 296 296 297 297 298 299 300 302 303 304 304 304 303 302 300 299 297 296 294 293 291 289 288 286 284 283 282 281 281 280 279 279
250 248 245 244 243 242 240 240 243 249 251 252 251 248 244 248 262 280 293 309 317 322 325 327 320 311 310 311 312 314 314 313 309 304 302 309 314 314 312 312 311 309 306 305 303 300 299 298 298 298 297 298 298 299 299 299 298 298 298 299 299 300 300 300 300 299 298 297 296 295 294 293 291 289 288 287 285 284 283 282 281 281 280 280 279 278
244 240 238 238 239 239 239 240 242 245 248 248 246 245 244 248 258 276 297 314 321 324 327 328 320 308 302 307 315 319 318 317 315 312 311 315 318 318 317 316 315 312 309 309 308 307 305 305 305 305 304 304 305 305 305 303 301 299 298 297 297 297 297 297 297 296 296 295 294 293 292 291 290 288 286 285 284 284 283 283 282 281 281 280 279 278
239 233 230 235 240 242 241 243 244 245 246 244 241 239 240 241 252 274 297 316 325 331 338 336 327 312 294 299 315 324 323 320 319 318 318 321 324 324 322 321 318 314 313 313 314 313 312 311 311 311 311 311 310 309 308 305 302 300 297 295 294 294 294 295 295 295 294 293 292 291 291 290 289 288 286 284 284 284 284 283 282 281 280 280 279 278
243 238 239 246 252 254 248 250 250 249 247 243 239 236 235 238 251 274 297 316 329 339 346 346 343 330 305 298 313 323 324 322 320 319 320 324 327 328 327 325 320 316 316 318 319 319 318 318 318 317 317 316 314 311 307 304 301 298 296 294 293 293 293 294 294 294 293 293 293 292 292 291 290 289 287 286 285 285 284 283 282 281 281 280 279 279
249 246 247 252 258 261 258 258 259 257 252 243 237 235 236 241 254 273 294 313 329 343 349 343 328 282 290 310 318 321 324 324 321 320 322 326 328 329 328 326 319 315 316 319 321 322 322 323 324 324 322 319 315 310 306 302 299 297 296 295 294 294 295 295 295 295 295 295 295 295 294 293 292 291 290 290 288 287 285 284 283 283 282 281 281 281
256 256 254 254 257 261 264 267 267 264 255 245 237 232 230 239 254 273 292 310 324 334 340 334 316 293 282 295 311 319 326 326 324 323 324 326 327 328 326 324 317 313 315 319 322 324 325 326 327 326 324 319 314 308 304 302 300 300 299 299 300 300 300 300 300 300 299 299 299 297 296 295 295 294 293 291 290 288 287 287 286 286 285 284 284 283
261 263 261 259 257 258 264 270 271 266 255 245 237 231 228 238 254 271 286 306 320 327 332 332 319 302 296 302 313 323 330 330 328 327 325 322 320 319 322 321 317 315 317 320 323 326 328 329 330 329 325 319 313 309 307 307 308 309 309 309 309 309 309 309 308 306 304 303 302 301 300 298 298 297 296 294 293 292 292 290 289 288 287 285 285 284
262 265 264 262 257 253 259 264 260 250 240 235 230 226 226 238 251 267 284 304 314 322 326 324 318 312 313 318 323 329 332 334 333 331 326 315 301 303 320 324 323 322 322 323 325 328 331 333 335 334 329 322 316 314 316 318 320 321 323 323 323 322 321 319 316 312 309 306 305 304 302 301 300 300 299 298 296 294 293 292 290 289 288 287 285 284
260 262 261 256 252 251 250 249 240 229 222 222 220 219 224 236 247 260 279 300 309 312 316 315 317 322 327 330 330 332 335 335 336 334 325 303 276 293 323 328 327 326 326 326 328 331 333 337 339 338 333 325 321 321 325 328 332 335 337 337 334 331 327 322 317 313 309 308 306 305 304 304 303 302 300 299 297 296 294 293 292 291 289 288 286 285
255 254 252 247 245 243 242 235 221 211 210 213 216 221 234 253 270 284 294 305 310 316 322 325 327 328 331 333 334 334 335 334 334 332 323 295 276 300 323 329 329 327 327 327 330 332 335 340 343 345 339 330 325 326 331 336 341 344 343 338 331 325 320 316 312 310 308 307 306 305 305 304 304 303 301 300 300 298 297 295 294 293 291 290 288 286
248 246 242 237 234 232 228 218 208 202 203 209 218 232 250 271 288 304 315 319 323 327 329 327 328 329 327 331 331 329 328 328 331 331 326 292 283 303 321 329 331 329 326 326 329 334 337 342 348 354 352 338 324 325 337 343 344 340 332 325 321 317 313 311 310 308 308 308 308 306 306 306 306 306 305 304 303 302 300 299 298 296 294 292 290 288
233 230 225 222 219 217 212 205 200 200 202 209 221 235 255 282 300 311 319 323 328 327 325 326 331 334 330 333 328 321 322 325 325 324 322 296 288 303 319 330 332 329 325 326 330 334 338 342 350 1 5 350 320 324 337 339 336 330 326 322 319 316 314 312 310 310 309 310 310 310 311 311 311 310 309 307 306 306 304 302 300 298 296 294 291 289
215 211 210 208 206 205 201 199 197 197 200 207 220 240 262 283 297 304 307 311 316 321 327 338 342 336 329 327 322 318 319 321 319 314 310 300 299 308 321 331 333 330 325 326 329 333 335 338 346 0 4 349 319 322 328 328 326 325 324 323 322 321 319 317 316 315 315 315 314 314 314 314 313 312 311 310 309 307 305 303 302 300 298 296 293 291
202 199 196 194 194 193 193 193 192 197 206 217 228 244 257 267 279 288 292 297 307 320 338 351 344 325 322 321 317 314 315 313 307 301 301 305 306 311 320 331 334 332 328 325 327 330 330 332 339 350 350 308 299 311 317 320 322 323 324 325 325 326 325 324 324 323 322 321 319 317 315 314 313 312 311 310 310 308 307 305 304 303 301 299 296 293
193 190 190 190 190 186 178 176 194 223 244 247 248 250 255 258 265 274 280 293 305 316 334 341 329 312 312 314 312 310 308 300 288 285 298 313 312 310 321 332 337 336 331 326 325 327 329 329 331 331 297 281 292 306 312 317 321 324 326 327 329 330 329 329 328 327 326 323 320 318 315 313 312 312 311 311 310 309 309 308 307 306 304 301 298 295
197 197 199 199 197 188 175 178 194 216 236 245 253 257 256 259 265 272 279 293 300 303 308 314 312 306 306 310 310 307 300 280 263 288 312 320 315 312 325 333 338 338 336 330 328 328 328 325 317 299 279 290 302 309 314 318 322 325 328 330 331 331 331 330 329 328 326 323 320 317 315 313 312 312 311 311 310 310 309 309 309 308 306 303 300 297
207 209 210 209 207 202 196 198 204 211 220 228 238 245 250 260 271 280 285 290 291 289 292 299 301 303 306 312 316 312 294 250 252 314 327 322 314 317 328 331 335 338 341 338 334 327 321 314 299 275 288 304 311 314 317 320 324 327 329 330 330 330 330 329 328 326 324 321 319 317 316 314 313 312 312 311 310 310 309 309 309 308 306 304 301 299
213 213 212 211 212 212 214 215 217 221 223 227 232 238 247 260 271 279 282 286 288 287 285 288 290 292 297 307 318 321 291 287 308 323 329 320 311 315 323 325 327 332 340 343 343 324 317 312 300 292 306 312 314 315 318 321 324 326 328 328 327 327 327 327 326 324 322 320 318 318 318 317 316 315 314 312 311 310 309 309 309 308 305 304 302 300
217 215 212 210 210 213 216 219 222 224 227 231 237 244 252 260 266 272 276 281 282 281 278 279 280 281 281 276 265 259 277 294 306 315 318 310 305 309 315 317 319 322 327 331 325 307 305 304 302 304 309 311 313 314 316 318 321 324 326 325 324 323 324 324 323 322 320 320 320 320 320 320 319 318 317 315 313 312 310 309 308 306 305 304 302 301
218 213 209 206 208 212 215 218 222 226 233 241 248 254 259 262 265 268 271 274 274 274 272 272 274 275 275 270 266 266 275 285 296 305 308 302 300 303 308 311 312 314 316 315 308 295 284 288 298 304 307 308 310 312 314 316 319 322 323 321 320 320 321 322 322 321 320 320 321 321 321 322 321 320 319 318 316 314 312 310 307 305 304 302 301 300
216 212 209 211 217 222 226 230 234 239 247 256 262 266 268 267 266 267 269 270 271 271 269 267 267 270 271 271 270 272 277 283 290 296 298 295 295 298 302 304 306 308 310 309 305 298 290 290 296 303 307 308 309 310 311 315 318 319 318 317 316 317 319 321 321 320 320 319 319 319 320 321 321 320 320 318 317 316 313 310 306 302 301 298 297 297
214 213 216 222 230 236 240 241 243 247 255 266 273 273 269 265 263 264 267 269 271 271 270 267 265 266 268 269 271 274 279 284 289 292 291 290 291 294 297 298 300 304 305 304 303 303 299 297 299 302 305 307 308 308 310 313 316 315 314 314 314 315 317 319 319 318 318 317 317 317 318 318 319 319 318 318 317 314 310 305 302 299 296 294 293 292
212 217 223 231 238 243 245 245 246 251 261 273 278 273 262 258 259 263 266 269 270 271 270 268 266 266 269 270 271 275 280 287 292 293 292 290 290 291 291 292 295 298 299 299 300 302 302 301 301 302 303 304 306 308 309 312 314 313 313 313 313 314 315 316 317 316 316 314 314 314 315 315 316 316 316 315 312 309 305 301 300 298 297 294 292 289
215 223 232 238 244 247 246 243 244 253 270 279 278 270 260 255 258 262 265 267 268 269 270 270 270 271 273 276 278 281 285 290 292 292 291 289 289 288 286 286 288 291 292 295 298 301 302 302 303 303 301 299 299 304 309 312 313 313 312 312 312 312 313 314 315 315 313 311 310 311 312 313 313 312 312 311 310 307 305 304 303 302 300 298 294 290
222 229 237 243 247 247 245 241 244 256 272 276 273 266 260 257 259 262 264 266 268 272 276 277 276 277 279 280 282 285 288 290 292 292 290 289 288 287 287 286 286 287 287 288 292 295 297 298 300 303 302 299 298 300 305 309 312 312 311 311 311 310 311 313 314 313 311 309 309 309 310 310 310 310 310 310 309 309 308 308 307 305 303 300 297 293
223 229 235 241 244 245 243 242 249 261 271 271 267 262 261 262 264 266 267 268 271 274 276 278 277 278 279 281 282 285 287 289 291 291 290 288 286 286 287 286 285 285 285 285 285 286 286 287 288 292 297 300 301 302 304 306 308 310 312 313 312 311 311 312 312 311 309 309 308 308 308 309 309 309 308 309 309 309 308 307 306 305 303 301 299 296
221 227 233 238 241 241 243 250 259 267 271 271 269 268 267 268 270 271 271 272 274 276 277 278 278 279 280 281 283 286 288 289 289 289 288 286 284 283 282 282 282 283 285 284 282 279 277 278 280 284 288 292 296 300 302 303 305 308 311 313 312 310 310 310 310 309 308 308 307 307 308 308 308 308 308 308 307 306 305 304 303 302 302 300 298 297
223 228 234 239 242 245 253 262 267 267 264 260 260 261 262 266 270 273 275 277 279 280 280 281 283 283 284 284 285 287 289 289 289 289 287 286 284 283 282 282 282 283 285 284 282 278 275 275 278 281 284 287 291 294 296 298 301 304 307 306 304 304 306 307 307 307 307 307 306 306 307 308 308 308 307 306 304 303 302 301 300 300 300 297 295 293
226 232 239 246 251 257 262 267 267 264 259 256 255 256 258 265 272 277 279 281 281 283 284 286 287 288 288 288 289 290 291 290 290 289 288 287 286 285 283 283 284 285 285 283 280 277 275 274 276 279 282 286 290 293 294 295 297 299 300 299 301 304 306 306 306 306 307 306 306 306 306 307 307 306 306 304 303 302 301 300 298 297 296 294 291 288
241 248 254 258 260 259 259 260 260 261 261 262 262 263 266 270 276 280 282 282 283 284 287 288 289 289 288 289 292 294 294 292 291 291 291 290 289 287 285 284 284 285 284 281 278 277 277 276 275 277 281 285 287 289 291 294 296 297 296 296 299 303 304 303 304 306 305 304 304 305 306 306 306 306 305 304 302 301 301 299 297 294 292 290 288 286
250 252 254 254 253 251 249 248 249 252 256 259 262 266 269 271 275 278 280 281 282 285 288 289 290 288 284 284 289 294 298 298 297 296 295 295 294 291 289 287 286 284 283 279 276 276 280 281 280 280 283 285 285 286 288 290 293 294 294 295 295 293 291 295 299 303 303 303 303 304 305 306 307 307 305 303 302 301 300 298 296 294 292 290 288 286
244 244 244 244 243 241 238 236 238 244 251 257 262 266 267 268 269 271 274 277 280 283 285 287 286 283 280 282 288 295 300 302 303 302 300 298 295 293 291 290 289 288 286 282 279 278 278 280 282 285 286 285 283 283 284 287 289 291 292 293 293 290 288 290 294 298 300 301 302 303 305 307 308 307 306 304 302 301 299 297 296 294 292 290 288 286
237 237 238 238 238 236 234 235 240 248 256 261 263 264 263 263 264 266 269 274 278 282 284 283 278 273 273 281 292 300 305 305 305 305 304 302 299 296 293 292 291 291 290 288 286 283 280 279 281 286 289 288 285 282 280 282 285 288 290 292 293 293 293 293 293 295 297 299 301 303 306 308 308 307 305 304 303 301 299 297 295 293 292 291 289 287
233 236 239 243 245 247 249 253 256 258 259 260 259 260 261 262 263 265 268 274 278 282 283 280 273 268 271 284 298 307 309 308 308 307 307 306 304 302 299 296 295 294 294 293 293 291 288 286 284 284 285 286 286 284 282 281 281 283 286 290 293 294 294 294 294 295 297 299 301 303 307 309 309 307 305 304 303 301 299 297 295 293 292 291 289 288
237 242 247 250 253 255 257 255 253 251 251 252 254 258 262 263 263 264 268 275 281 282 279 275 273 277 286 297 304 306 307 306 306 306 307 308 308 307 304 303 301 299 298 296 294 292 290 287 284 281 278 276 277 280 282 282 281 282 284 287 291 292 292 292 294 297 299 299 301 304 306 307 307 306 306 305 303 301 299 298 297 295 293 291 291 290
238 242 244 245 246 246 245 244 244 244 245 248 253 258 262 263 263 264 269 275 279 278 273 273 282 294 300 303 304 304 304 302 302 304 306 308 310 310 309 308 307 306 304 301 297 293 290 287 282 277 273 269 269 272 277 280 282 283 284 286 287 289 290 292 295 297 300 301 303 304 305 305 304 303 304 303 301 300 299 299 298 296 295 293 292 291
235 236 236 235 235 236 238 240 241 243 245 249 254 257 260 259 258 260 265 271 272 270 270 277 290 298 301 302 303 303 303 302 302 304 306 308 310 311 312 311 312 312 310 308 305 303 300 296 291 284 275 269 266 267 272 278 283 286 287 287 287 288 290 292 296 299 302 304 305 305 305 304 303 302 301 299 298 298 299 299 298 297 296 296 295 294
230 231 231 231 232 234 237 239 241 244 247 251 254 255 254 252 251 254 260 264 265 267 273 284 294 299 301 302 303 303 303 304 305 306 307 309 310 311 312 313 315 315 315 314 313 312 311 308 304 299 293 282 270 267 272 279 286 290 291 291 291 293 294 296 298 301 304 305 305 305 305 304 302 301 298 297 297 297 298 298 297 297 298 299 299 297
Height
756 756 756 756 756 756 756 756 756 756 756 756 756 755 755 755 755 755 754 754 753 753 753 753 752 752 752 752 752 752 752 752 752 751 751 751 751 750 750 749 749 748 747 747 747 747 747 746 745 744 744 744 744 744 744 745 745 745 745 745 745 745 745 745 745 745 745 745 745 745 745 744 744 744 744 744 744 744 744 744 744 744 745 745 745 746
755 755 755 755 755 755 755 755 755 755 755 755 755 755 754 754 754 754 754 753 753 752 752 752 752 751 751 751 751 751 751 751 751 751 751 750 750 749 749 748 748 747 747 747 747 747 746 746 745 744 744 744 744 743 743 743 743 743 743 743 743 743 744 744 744 744 744 744 743 743 743 743 743 743 743 743 743 743 743 743 743 743 743 744 744 745
754 754 754 754 754 754 754 754 754 754 754 754 754 754 754 754 753 753 753 752 752 752 752 751 751 751 751 751 750 750 750 750 750 750 750 749 749 749 748 748 747 747 746 746 746 746 746 745 745 744 744 744 743 743 743 743 743 743 743 742 742 742 742 742 742 742 742 742 742 742 742 742 743 743 742 742 742 742 742 742 742 742 742 742 743 744
753 753 753 753 753 753 753 753 753 753 753 753 753 753 753 753 752 752 752 752 751 751 751 751 751 750 750 750 750 750 750 749 749 749 749 748 748 748 748 747 747 746 746 746 746 746 745 745 745 744 744 744 743 743 743 743 743 742 742 742 742 741 741 741 741 741 741 741 741 741 741 742 742 742 742 741 741 741 741 741 741 741 741 741 742 742
752 752 752 752 752 752 752 753 752 752 752 752 752 752 752 752 752 751 751 751 751 751 750 750 750 750 750 749 749 749 749 749 748 748 748 748 747 747 747 747 747 746 746 746 746 746 745 745 745 744 744 743 743 743 743 742 742 742 742 741 741 741 741 741 741 740 740 740 740 740 740 740 741 741 740 740 740 740 740 740 740 740 740 740 740 741
751 751 752 752 752 752 752 752 752 752 752 751 751 751 751 751 751 751 751 750 750 750 750 750 749 749 749 749 749 749 748 748 748 748 747 747 747 747 747 746 746 746 746 746 746 746 745 745 744 744 743 743 743 742 742 742 741 741 741 741 741 740 740 740 740 739 739 739 739 739 739 739 739 739 739 738 738 738 738 738 738 738 738 738 739 739
751 751 751 751 751 751 751 751 751 751 751 751 751 751 751 750 750 750 750 750 750 750 749 749 749 749 749 748 748 748 748 748 748 747 747 747 747 747 746 746 746 746 746 746 745 745 745 744 744 743 743 742 742 742 741 741 741 741 740 740 740 739 739 739 739 738 738 738 738 737 737 737 737 737 737 736 736 736 736 736 736 736 736 737 737 737
750 750 750 750 750 750 750 750 750 750 750 750 750 750 750 750 750 750 750 749 749 749 749 749 749 749 748 748 748 748 748 747 747 747 747 747 747 746 746 746 746 746 745 745 745 744 744 744 743 742 742 741 741 741 741 740 740 740 739 739 739 738 738 738 738 737 737 737 736 736 736 736 736 735 735 735 735 735 735 735 735 735 735 735 736 736
750 749 749 750 750 750 750 750 750 750 750 750 750 750 749 749 749 749 749 749 749 749 749 749 749 748 748 748 748 748 747 747 747 747 747 746 746 746 746 746 746 745 745 745 744 744 743 743 742 742 741 741 740 740 739 739 739 738 738 738 737 737 737 736 736 736 736 735 735 735 735 734 734 734 733 733 733 733 733 733 733 733 733 734 734 734
749 749 749 749 749 749 750 749 749 749 750 749 749 749 749 749 749 749 749 749 749 749 749 748 748 748 748 748 747 747 747 747 747 746 746 746 746 746 745 745 745 745 744 744 743 743 742 742 741 741 740 740 739 739 738 738 738 737 737 736 736 736 736 735 735 735 734 734 734 733 733 733 732 732 732 732 731 731 731 731 731 731 731 732 732 732
749 749 749 749 749 749 749 749 749 749 749 749 749 749 749 748 748 748 748 748 748 748 748 748 748 748 747 747 747 747 747 746 746 746 746 746 745 745 745 744 744 744 743 743 742 742 741 741 740 740 739 739 738 738 737 737 736 736 736 735 735 735 734 734 733 733 733 733 732 732 732 732 731 731 731 731 730 730 730 730 730 730 730 730 730 730
748 749 749 749 749 749 749 749 749 749 749 749 748 748 748 748 748 748 748 748 748 748 748 747 747 747 747 746 746 746 746 746 746 745 745 745 745 744 744 744 743 743 743 742 741 741 740 740 739 738 738 737 737 736 736 736 735 735 735 734 734 733 733 733 732 732 732 731 731 731 731 731 730 730 730 730 729 729 729 729 729 728 728 728 728 728
748 748 748 748 748 748 748 748 748 748 748 748 748 748 747 747 747 747 747 747 747 747 747 747 747 746 746 746 746 745 745 745 745 744 744 744 744 743 743 743 742 742 741 741 740 740 739 738 738 737 737 736 736 736 735 735 734 734 733 733 732 732 732 731 731 731 731 731 730 730 730 730 729 729 729 729 729 728 728 728 728 727 727 727 727 727
748 748 748 748 748 748 748 748 748 748 747 747 747 747 747 747 747 747 747 747 747 747 747 747 746 746 746 745 745 745 745 744 744 744 744 743 743 742 742 741 741 741 740 740 739 738 738 737 736 736 736 735 735 734 734 733 733 733 732 732 731 731 731 731 731 730 730 730 730 729 729 729 729 728 728 728 728 728 727 727 727 726 726 726 726 726
747 747 747 747 747 747 747 747 747 747 747 747 747 747 747 747 747 747 747 747 747 747 746 746 746 746 745 745 745 745 744 744 743 743 742 742 742 742 741 741 740 740 739 738 738 737 737 736 736 735 735 734 734 733 733 732 732 732 731 731 731 731 730 730 730 730 729 729 729 729 728 728 728 728 727 727 727 726 726 726 726 725 725 725 724 724
746 747 747 746 746 746 746 746 746 746 746 746 746 746 746 746 746 746 746 746 746 746 746 746 745 745 745 745 745 744 744 743 743 742 741 741 741 741 740 740 739 739 738 738 737 736 736 736 735 735 734 734 733 733 732 732 731 731 731 730 730 730 729 729 729 729 729 728 728 728 727 727 727 726 726 726 726 725 725 724 724 724 723 723 723 723
746 746 746 746 746 746 746 746 746 746 746 746 746 746 746 746 746 746 746 746 746 746 746 746 746 745 745 744 744 744 744 743 742 741 741 741 741 740 740 739 739 738 737 737 736 736 736 735 735 734 734 733 732 732 731 731 731 730 730 729 729 729 729 728 728 728 728 727 727 727 726 726 726 725 725 725 724 724 723 723 723 722 722 722 721 721
745 745 745 745 745 745 745 745 745 745 746 746 746 746 746 746 746 746 746 746 746 746 746 746 746 746 745 745 744 744 743 743 742 741 740 740 740 739 739 738 738 737 737 736 736 736 735 735 734 733 733 732 731 731 730 730 729 729 729 728 728 728 728 728 727 727 727 726 726 726 726 725 725 724 724 723 723 723 722 722 721 721 721 720 720 719
744 744 744 744 744 744 744 744 745 745 745 745 745 745 745 746 746 746 746 746 746 746 746 746 746 745 745 745 744 743 743 742 741 740 739 739 739 738 738 737 737 736 736 736 735 735 734 734 733 733 732 731 730 730 729 729 728 728 728 727 727 727 727 727 726 726 726 726 725 725 725 724 724 723 723 722 722 721 721 720 720 719 719 718 718 717
743 743 743 743 743 743 743 744 744 744 744 744 744 745 745 745 745 745 745 745 745 745 745 745 745 745 744 744 743 743 742 741 741 740 739 738 738 737 737 736 736 736 735 735 734 734 733 732 732 731 730 729 729 728 728 727 727 727 727 727 726 726 726 726 726 726 725 725 724 724 724 723 723 722 721 721 720 720 719 719 718 717 717 716 716 716
742 742 742 742 742 742 743 743 743 743 743 744 744 744 744 745 745 745 745 745 745 744 744 744 744 744 743 743 742 742 741 741 740 739 738 737 736 736 736 736 735 734 733 733 733 732 732 731 731 730 729 728 727 727 727 726 726 726 726 726 726 726 726 725 725 725 724 724 723 723 722 722 721 721 720 719 719 718 717 716 716 715 715 715 714 714
741 741 741 741 742 742 742 742 742 742 743 743 743 743 744 744 744 744 744 744 744 744 744 743 743 743 743 742 742 741 741 740 740 739 738 737 736 735 735 735 734 733 732 731 731 731 730 730 729 728 727 726 726 726 726 726 726 726 726 726 725 725 725 725 724 724 723 723 722 721 721 720 720 719 718 717 716 716 715 715 714 714 713 713 712 712
740 741 741 741 741 741 741 741 742 742 742 742 743 743 743 743 743 743 743 743 743 743 743 743 742 742 742 741 741 741 740 740 739 739 738 736 735 734 734 734 733 732 731 730 730 729 729 728 728 727 726 726 725 725 725 725 725 725 725 725 725 724 724 723 723 722 722 721 721 720 719 718 718 717 716 716 715 714 714 713 712 712 711 711 711 711
740 740 740 740 741 741 741 741 741 741 742 742 742 742 743 743 743 743 743 743 743 742 742 742 742 741 741 741 741 740 740 739 739 738 738 736 735 734 734 733 732 731 730 729 729 728 727 727 726 726 725 725 725 725 724 724 724 724 724 724 723 723 722 722 721 721 720 719 719 718 717 716 716 715 715 714 713 713 712 711 711 710 710 709 709 709
739 739 740 740 740 740 741 741 741 741 741 741 742 742 742 742 742 742 742 742 742 742 742 741 741 741 741 740 740 740 739 739 738 738 738 736 735 734 734 733 732 731 729 728 727 727 726 726 725 725 725 724 724 724 724 724 724 724 723 723 722 721 721 720 719 719 718 717 717 716 716 715 714 714 713 712 712 711 711 710 709 709 708 708 707 706
739 739 739 739 740 740 740 740 741 741 741 741 741 741 741 741 742 742 742 742 742 741 741 741 741 741 740 740 740 739 739 738 738 737 737 736 735 734 733 733 732 731 729 727 726 726 725 725 724 724 724 724 723 723 723 723 723 722 722 721 721 720 719 718 717 717 716 716 715 715 714 713 713 712 711 711 710 710 709 708 708 707 707 706 705 705
738 738 739 739 739 739 740 740 740 740 740 741 741 741 741 741 741 741 741 741 741 741 741 741 741 741 740 740 739 739 738 738 737 737 737 736 735 734 733 733 732 731 728 726 726 725 725 724 723 723 723 723 723 722 722 722 722 721 721 720 719 718 717 717 716 716 715 714 714 713 712 712 711 711 710 710 709 708 708 707 706 706 705 704 703 702
738 738 738 738 738 739 739 739 740 740 740 740 740 740 740 740 741 741 741 741 741 741 741 741 741 741 740 739 739 738 738 737 737 736 736 736 735 734 733 732 731 731 729 726 725 724 723 723 722 722 722 722 722 721 721 721 721 720 719 718 717 716 716 715 715 714 713 713 712 711 711 711 710 709 709 708 707 707 706 706 705 704 704 703 702 701
737 737 737 738 738 738 738 739 739 739 739 739 739 739 739 740 740 740 740 740 741 741 741 741 741 741 740 739 739 738 737 737 736 736 736 735 734 734 733 732 731 731 729 726 724 722 722 722 722 721 721 721 721 721 720 720 719 718 717 717 716 715 715 714 713 713 712 711 711 710 710 709 708 708 707 707 706 706 705 705 704 703 702 701 700 699
736 737 737 737 737 738 738 738 738 738 739 739 739 739 739 739 739 739 740 740 740 740 740 740 740 740 740 739 738 737 736 736 736 736 735 735 734 733 732 732 731 731 730 728 725 722 721 721 721 721 720 720 720 719 719 718 717 717 716 715 715 714 713 713 712 711 711 710 709 709 708 707 707 706 706 705 705 704 704 703 703 702 701 700 699 698
736 736 736 736 737 737 737 737 738 738 738 738 738 738 738 738 739 739 739 739 739 739 739 739 739 739 739 739 739 738 737 736 736 736 735 735 734 733 732 732 731 731 731 730 729 726 722 720 719 719 719 719 718 718 717 717 716 715 715 714 713 712 712 711 711 710 709 709 708 707 707 706 706 705 705 704 703 703 702 702 701 701 700 699 698 697
735 736 736 736 736 736 737 737 737 737 737 737 738 738 738 738 738 738 738 738 738 738 738 738 739 739 739 739 739 738 737 736 736 736 735 734 733 732 732 732 731 731 731 731 731 730 727 722 719 718 718 718 717 716 716 716 715 714 713 712 712 711 711 710 709 709 708 707 706 706 705 705 704 703 703 702 702 701 701 701 700 700 699 698 697 696
735 735 736 736 736 736 736 736 736 736 737 737 737 737 737 737 737 737 737 737 737 737 737 737 738 738 738 738 737 737 736 736 736 735 735 734 733 732 731 731 731 730 730 730 730 729 728 725 721 718 716 716 716 716 715 714 714 713 712 711 711 710 709 709 708 707 706 705 705 704 704 703 702 702 701 701 700 700 699 699 699 699 698 697 696 695
734 735 735 735 736 736 736 736 736 736 736 736 736 736 736 736 736 736 736 736 736 736 736 736 737 737 736 736 736 736 735 735 735 735 734 734 733 732 731 731 730 730 729 728 728 727 726 725 722 720 716 715 714 714 714 713 712 712 711 711 710 709 708 707 706 706 705 704 703 702 702 701 701 700 700 699 699 698 698 698 697 697 697 697 696 694
734 734 734 735 735 735 735 735 735 736 736 736 736 736 736 736 736 736 736 736 736 736 736 736 736 736 736 735 735 734 734 734 734 734 734 733 732 731 731 730 729 729 728 727 727 726 725 723 722 721 718 715 712 712 712 712 712 711 711 710 709 708 707 706 706 704 703 703 702 701 701 700 699 699 698 698 697 697 696 696 696 696 696 695 695 693
733 733 733 734 734 734 734 735 735 735 735 735 735 735 735 735 735 735 735 735 735 735 735 735 735 734 734 734 734 733 733 733 733 733 733 732 732 731 730 729 728 728 728 727 726 725 724 722 721 720 719 716 713 711 710 711 711 710 709 708 708 707 706 705 705 704 702 701 701 700 699 699 698 697 697 696 696 696 695 695 694 694 693 693 692 692
732 732 732 733 733 733 733 733 733 734 734 734 734 734 734 734 734 734 734 734 734 734 734 733 733 733 733 733 732 732 731 731 731 732 731 731 731 730 729 728 728 727 727 726 726 725 724 722 720 718 717 716 714 711 710 709 709 708 708 707 706 706 705 704 703 703 702 701 700 699 698 698 697 696 696 695 695 694 693 692 692 691 691 690 690 689
731 731 731 731 732 732 732 732 732 732 733 733 733 733 733 733 733 733 733 733 733 733 732 732 732 732 732 731 731 731 731 730 730 730 730 730 730 729 728 727 726 726 726 726 725 724 724 722 720 718 716 715 713 712 711 709 708 707 706 705 705 704 703 703 702 702 701 700 699 698 697 696 696 695 694 693 693 692 691 690 689 689 688 688 687 686
729 730 730 730 730 730 731 731 731 731 731 731 732 732 732 732 732 732 732 732 732 732 731 731 731 731 731 731 730 730 730 729 729 729 729 728 728 728 727 726 726 725 725 725 725 724 723 722 721 719 716 714 712 711 710 709 708 706 705 703 702 702 702 702 701 701 700 699 697 696 696 695 695 694 693 692 691 690 689 688 687 686 686 685 684 683
727 728 728 728 729 729 730 730 730 730 731 731 731 731 731 731 731 731 731 731 731 731 731 730 730 730 730 729 729 729 729 728 728 728 727 727 727 726 726 725 725 724 724 723 723 722 722 721 720 718 717 715 713 711 709 708 707 706 705 703 701 700 700 700 700 699 698 697 696 696 695 694 693 692 691 690 690 689 688 686 685 685 684 683 682 680
726 726 727 727 728 728 728 729 729 729 729 729 729 730 730 730 730 730 730 730 730 730 729 729 729 729 728 728 728 728 727 727 727 726 726 726 725 725 725 724 724 723 722 722 721 721 721 720 718 717 716 715 713 711 709 707 707 706 706 704 701 699 698 698 698 698 697 696 696 695 694 692 691 691 690 689 688 687 686 685 684 682 682 681 681 680
725 725 726 726 726 727 727 728 728 728 728 728 728 728 729 729 729 729 729 729 728 728 728 728 728 727 727 727 726 726 726 726 726 725 725 724 724 724 723 723 722 722 721 721 720 719 719 718 717 716 715 714 712 710 708 706 706 706 705 704 702 699 697 696 696 697 696 695 694 693 693 691 690 689 688 687 686 685 684 683 682 681 680 679 678 678
724 724 725 725 726 726 726 727 727 727 727 727 727 727 728 728 728 728 727 727 727 727 727 727 726 726 726 725 725 725 725 725 724 724 724 723 723 723 722 722 721 721 721 720 719 718 717 717 716 715 714 713 712 710 707 705 704 704 703 703 702 700 697 694 694 695 695 694 693 692 691 690 689 687 686 685 684 683 682 681 680 679 678 677 676 675
723 723 724 724 725 725 725 726 726 726 726 726 726 726 726 727 727 726 726 726 726 726 726 726 725 725 724 724 723 723 723 723 723 723 723 722 722 721 721 721 720 720 719 719 718 716 716 715 714 714 713 712 711 709 707 705 703 702 701 701 701 701 698 695 694 693 693 692 691 691 690 689 687 686 684 683 682 681 680 679 677 676 676 675 674 673
721 722 722 723 723 723 723 724 724 724 725 725 725 725 726 726 726 726 725 725 725 725 725 725 724 724 723 722 722 722 722 722 722 722 721 721 721 721 720 720 719 718 718 717 716 716 715 714 712 712 711 711 710 708 706 704 702 701 700 699 699 698 696 695 694 693 692 690 689 689 688 688 686 685 682 681 679 678 677 676 675 674 673 672 672 671
720 721 721 721 721 722 722 722 723 723 723 724 724 724 724 724 724 724 724 724 724 724 723 723 723 722 722 721 721 721 721 721 721 721 720 720 720 720 719 719 718 717 717 716 715 715 714 713 712 711 710 709 707 706 705 704 702 700 698 697 697 696 695 693 693 692 691 690 688 687 687 686 685 683 681 679 677 675 674 674 673 672 671 670 669 668
719 719 720 720 721 721 721 721 722 722 722 723 723 723 723 723 723 722 722 722 722 722 722 722 721 721 721 721 721 720 720 720 719 719 719 719 718 718 718 717 717 716 716 715 714 713 712 711 711 710 709 708 706 703 702 702 701 700 698 696 696 695 693 692 691 691 690 689 688 686 686 685 683 682 679 677 675 673 671 671 670 670 669 668 666 666
718 718 719 719 719 720 720 720 721 721 721 721 721 721 721 721 721 721 721 721 721 721 721 721 721 720 720 720 720 720 720 719 719 718 718 717 717 717 716 716 716 715 714 714 713 712 711 710 709 709 708 707 705 702 700 699 699 698 697 696 695 694 692 690 689 689 689 688 687 686 685 684 683 681 678 676 673 670 668 667 667 667 666 666 665 663
716 717 717 718 718 719 719 719 719 719 719 719 719 720 720 720 720 720 720 720 720 720 720 720 720 720 719 719 719 719 719 718 718 717 717 716 716 716 715 715 714 714 713 712 711 710 709 708 707 706 706 705 704 701 698 697 697 696 696 695 694 693 691 689 688 687 687 686 685 685 684 683 682 681 679 676 672 669 666 665 664 664 664 663 663 661
715 716 716 716 716 717 717 717 717 717 718 718 718 718 719 719 719 719 719 719 719 719 719 719 719 719 718 718 718 718 718 717 717 716 716 716 715 715 714 714 713 712 711 710 709 708 707 706 704 704 703 703 702 701 698 696 696 695 694 693 693 692 690 688 687 686 686 685 684 683 682 681 680 679 678 676 672 668 665 663 661 661 661 661 661 660
713 714 714 714 715 715 715 716 716 716 716 717 717 717 717 718 718 718 718 718 718 718 718 718 718 718 718 717 717 717 717 717 716 716 715 715 715 714 714 713 712 711 710 709 707 706 705 704 702 701 700 701 701 700 698 697 695 694 693 691 691 691 690 688 686 685 684 683 682 681 680 679 678 677 677 675 672 669 665 661 659 658 658 658 658 657